User: anonymous   Login
Location: Unspecified
(0.0000°N, 0.0000°E)
Time: 19:47:32
(UTC+00:00)
Language:

COSMOS 2452 - Orbit

View from above orbital plane
View from above orbital plane
View from above satellite
View from above satellite

Ground track
Ground track

The orbit data is extracted from the following two-line orbital elements,

1 35499U 09036B   21025.67133099  .00000002  00000-0 -55540-4 0  9992
2 35499  82.4889 225.4990 0016502 112.4858 247.7970 12.42927792524344
Epoch (UTC): 25 January 2021 16:06:42
Eccentricity: 0.0016502
inclination: 82.4889°
perigee height: 1481 km
apogee height: 1507 km
right ascension of ascending node: 225.4990°
argument of perigee: 112.4858°
revolutions per day: 12.42927792
mean anomaly at epoch: 247.7970°
orbit number at epoch: 52434

The dashed part of the orbit path shows where the satellite is in the earth's shadow,  

DLR